Content
SEND FEEDBACK

Daily
Averages
Monthly
Summary
United States of America

HINESVILLE, GEORGIA


Home > North America > United States > Georgia
Elevation: 46 feet     Latitude: 31 53N     Longitude: 081 34W

WEATHER
 
SELECT A DAY
Number of Records: 169,287;   Date Range: 1/3/95 - 9/18/14
 
SHARE

PRINT THIS DATA

[ ← Previous Day ]
WEATHER ALMANAC - JANUARY 31, 2013
[ Next Day → ]
[ °C ]   °F
Weather ElementAverageHighLow
Temperature49.7 °F56.5 °F (2:55 pm)40.3 °F (8:55 pm)
Dewpoint33 °F51.8 °F (12:04 am)22.1 °F (2:55 pm)
Humidity56.5 %94 % (12:04 am)26 % (2:55 pm)
Barometer30.04 in30.23 in (10:55 pm)29.82 in (12:04 am)
Wind Speed10.7 mph16.1 mph (1:55 pm)
Wind Gust29.9 mph (3:55 am)
Weather ElementAverage
Visibility10 mi
Wind DirectionWSW (252.9 °)

Weather ElementTotal
Precipitation0.02 in
Heating Degree Days16.6 (Base 65)
Averaged from 28 records on January 31, 2013
WEATHER CONDITIONS BREAKOUT
WIND DIRECTION BREAKOUT
WEATHER BY HOUR - JANUARY 31, 2013
[ °C ]   °F
Local TimeTemperatureDewpointHumidityBarometerVisibilityWind DirectionWind SpeedGust SpeedPrecipitationEventsConditions
12:04 AM53.6 °F51.8 °F94 %29.82 in9.0 miSW (230°)8.1 mphRainRain
12:28 AM53.6 °F51.8 °F94 %29.82 in10.0 miSW (220°)8.1 mphOvercast
12:55 AM53.4 °F50.7 °F91 %29.83 in10.0 miSW (230°)10.4 mph0.02 inOvercast
1:55 AM53.8 °F48.4 °F82 %29.85 in10.0 miWSW (250°)10.4 mphOvercast
2:26 AM53.6 °F48.2 °F82 %29.87 in10.0 miWest (260°)10.4 mphOvercast
2:47 AM53.6 °F46.4 °F77 %29.87 in10.0 miWest (270°)15.0 mph24.2 mphOvercast
2:55 AM53.8 °F46.2 °F76 %29.88 in10.0 miWest (260°)11.5 mph24.2 mphOvercast
3:55 AM51.3 °F38.3 °F61 %29.92 in10.0 miWest (270°)15.0 mph29.9 mphScattered Clouds
4:55 AM48.0 °F34.2 °F59 %29.95 in10.0 miWest (270°)15.0 mph21.9 mphClear
5:55 AM45.7 °F31.6 °F58 %29.98 in10.0 miWest (270°)12.7 mphClear
6:55 AM44.4 °F29.3 °F55 %30.02 in10.0 miWest (280°)12.7 mphClear
7:55 AM43.7 °F29.5 °F57 %30.05 in10.0 miWest (260°)9.2 mphClear
8:55 AM45.1 °F28.2 °F52 %30.08 in10.0 miWest (280°)13.8 mph24.2 mphClear
9:55 AM47.1 °F26.8 °F45 %30.10 in10.0 miWNW (300°)12.7 mph23.0 mphClear
10:55 AM49.1 °F25.0 °F39 %30.11 in10.0 miWest (260°)15.0 mph20.7 mphClear
11:55 AM51.4 °F23.7 °F34 %30.11 in10.0 miWest (260°)13.8 mph24.2 mphClear
12:55 PM54.0 °F22.8 °F30 %30.10 in10.0 miWest (270°)13.8 mph20.7 mphClear
1:55 PM55.2 °F22.3 °F28 %30.09 in10.0 miWest (280°)16.1 mph24.2 mphClear
2:55 PM56.5 °F22.1 °F26 %30.09 in10.0 miWest (260°)16.1 mph21.9 mphClear
3:55 PM56.3 °F22.1 °F27 %30.10 in10.0 miWNW (290°)16.1 mph26.5 mphClear
4:55 PM55.6 °F23.2 °F29 %30.12 in10.0 miWest (270°)11.5 mphClear
5:55 PM52.3 °F23.2 °F32 %30.13 in10.0 miWest (280°)8.1 mphClear
6:55 PM46.6 °F28.9 °F50 %30.15 in10.0 miWSW (250°)3.5 mphClear
7:55 PM42.6 °F30.4 °F62 %30.17 in10.0 miCalmClear
8:55 PM40.3 °F32.0 °F72 %30.19 in10.0 miSW (230°)4.6 mphClear
9:55 PM44.1 °F30.6 °F59 %30.21 in10.0 miWSW (250°)6.9 mphClear
10:55 PM44.2 °F27.5 °F52 %30.23 in10.0 miWest (270°)5.8 mphClear
11:55 PM41.4 °F28.0 °F59 %30.22 in10.0 miWest (260°)3.5 mphClear
Hourly data recorded from KLHW, located miles away from Hinesville, Georgia







STORIES FROM OUR PARTNERS